Change the Weather History Date:

Wednesday, June 26, 2013

  Actual Average (KDFW) Record (KDFW)
Temperature  
Mean Temperature 86 °F 83 °F  
Max Temperature 96 °F 93 °F 113 °F (1980)
Min Temperature 75 °F 73 °F 60 °F (1928)
Degree Days  
Heating Degree Days 0 0  
Month to date heating degree days 0  
Since 1 June heating degree days 0  
Since 1 July heating degree days 2284  
Cooling Degree Days 20 18  
Month to date cooling degree days 417  
Year to date cooling degree days 839  
Since 1 June cooling degree days 417  
Growing Degree Days 36 (Base 50)    
Moisture  
Dew Point 66 °F    
Average Humidity 55    
Maximum Humidity 78    
Minimum Humidity 34    
Precipitation  
Precipitation 0.00 in 0.11 in 2.54 in (2007)
Month to date precipitation 3.39  
Year to date precipitation 19.64  
Sea Level Pressure  
Sea Level Pressure 29.91 in    
Wind  
Wind Speed 11 mph (South)    
Max Wind Speed 22 mph    
Max Gust Speed 28 mph    
Visibility 10 miles    
Events      
T = Trace of Precipitation, MM = Missing Value Source: NWS Daily Summary

Daily Weather History Graph

Daily Weather History Graph

Search for Another Location

Airport or City:

Trip Planner

Search our weather history database for the weather conditions in past years. The results will help you decide how hot, cold, wet, or windy it might be!

Date:

Astronomy

Jun. 26, 2013 Rise Set
Actual Time 6:22 AM CDT 8:39 PM CDT
Civil Twilight 5:53 AM CDT 9:08 PM CDT
Nautical Twilight 5:18 AM CDT 9:43 PM CDT
Astronomical Twilight 4:40 AM CDT 10:21 PM CDT
Moon 11:18 PM CDT (6/26) 10:02 AM CDT (6/26)
Length of Visible Light 15h 14m
Length of Day
14h 17m
Waning Gibbous, 85% of the Moon is Illuminated
Jun 26
Waning Gibbous
Jun 29
Last Quarter
Jul 8
New
Jul 15
First Quarter
Jul 22
Full

Hourly Weather History & Observations

Time (CDT) Temp. Heat Index Dew Point Humidity Pressure Visibility Wind Dir Wind Speed Gust Speed Precip Events Conditions
12:15 AM 86.0 °F 86.6 °F 62.6 °F 45% 29.90 in 10.0 mi South 9.2 mph - N/A   Clear
12:35 AM 86.0 °F 86.1 °F 60.8 °F 43% 29.90 in 10.0 mi South 11.5 mph 18.4 mph N/A   Clear
12:55 AM 84.2 °F 84.4 °F 60.8 °F 45% 29.90 in 10.0 mi South 12.7 mph 18.4 mph N/A   Clear
1:15 AM 82.4 °F 82.9 °F 60.8 °F 48% 29.89 in 10.0 mi South 13.8 mph - N/A   Clear
1:35 AM 82.4 °F 83.4 °F 62.6 °F 51% 29.89 in 10.0 mi South 13.8 mph 17.3 mph N/A   Clear
1:55 AM 82.4 °F 83.4 °F 62.6 °F 51% 29.89 in 10.0 mi South 11.5 mph 18.4 mph N/A   Clear
2:15 AM 82.4 °F 83.9 °F 64.4 °F 54% 29.89 in 10.0 mi South 11.5 mph 17.3 mph N/A   Clear
2:35 AM 80.6 °F 82.3 °F 64.4 °F 58% 29.89 in 10.0 mi South 13.8 mph - N/A   Clear
2:55 AM 80.6 °F 82.3 °F 64.4 °F 58% 29.89 in 10.0 mi South 11.5 mph 18.4 mph N/A   Clear
3:15 AM 80.6 °F 82.3 °F 64.4 °F 58% 29.89 in 10.0 mi South 13.8 mph 19.6 mph N/A   Clear
3:35 AM 78.8 °F - 64.4 °F 61% 29.89 in 10.0 mi South 11.5 mph 23.0 mph N/A   Clear
3:55 AM 78.8 °F - 66.2 °F 65% 29.89 in 10.0 mi South 15.0 mph 20.7 mph N/A   Clear
4:15 AM 78.8 °F - 66.2 °F 65% 29.89 in 10.0 mi South 13.8 mph 24.2 mph N/A   Clear
4:35 AM 78.8 °F - 66.2 °F 65% 29.90 in 10.0 mi South 9.2 mph 21.9 mph N/A   Clear
4:55 AM 77.0 °F - 66.2 °F 69% 29.90 in 10.0 mi South 13.8 mph 20.7 mph N/A   Clear
5:15 AM 77.0 °F - 68.0 °F 74% 29.91 in 10.0 mi South 11.5 mph 19.6 mph N/A   Clear
5:35 AM 77.0 °F - 68.0 °F 74% 29.91 in 10.0 mi South 15.0 mph 20.7 mph N/A   Clear
5:55 AM 77.0 °F - 68.0 °F 74% 29.92 in 10.0 mi South 9.2 mph 20.7 mph N/A   Clear
6:15 AM 77.0 °F - 68.0 °F 74% 29.92 in 10.0 mi South 11.5 mph 21.9 mph N/A   Clear
6:35 AM 77.0 °F - 68.0 °F 74% 29.93 in 10.0 mi South 13.8 mph 19.6 mph N/A   Clear
6:50 AM 77.0 °F - 69.8 °F 78% 29.93 in 10.0 mi South 13.8 mph 23.0 mph N/A   Clear
6:55 AM 75.2 °F - 68.0 °F 78% 29.94 in 10.0 mi South 12.7 mph 21.9 mph N/A   Clear
7:50 AM 78.8 °F - 69.8 °F 74% 29.95 in 10.0 mi South 21.9 mph 23.0 mph N/A   Clear
8:50 AM 80.6 °F 83.9 °F 69.8 °F 70% 29.98 in 10.0 mi South 16.1 mph 27.6 mph N/A   Clear
9:50 AM 82.4 °F 86.3 °F 69.8 °F 66% 29.99 in 10.0 mi South 16.1 mph 25.3 mph N/A   Scattered Clouds
10:50 AM 82.4 °F 86.3 °F 69.8 °F 66% 29.99 in 10.0 mi South 16.1 mph 25.3 mph N/A   Scattered Clouds
11:50 AM 87.8 °F 92.6 °F 69.8 °F 55% 29.99 in 10.0 mi South 13.8 mph 20.7 mph N/A   Clear
12:50 PM 89.6 °F 93.4 °F 68.0 °F 49% 29.98 in 10.0 mi South 11.5 mph 20.7 mph N/A   Clear
1:50 PM 91.4 °F 95.4 °F 68.0 °F 46% 29.95 in 10.0 mi SSE 13.8 mph 20.7 mph N/A   Clear
2:49 PM 93.2 °F 97.7 °F 68.0 °F 44% 29.93 in 10.0 mi South 11.5 mph 18.4 mph N/A   Clear
3:51 PM 96.8 °F 100.7 °F 66.2 °F 37% 29.91 in 10.0 mi South 11.5 mph 19.6 mph N/A   Clear
4:59 PM 96.8 °F 100.7 °F 66.2 °F 37% 29.90 in 10.0 mi South 9.2 mph 17.3 mph N/A   Clear
5:56 PM 96.8 °F 99.0 °F 64.4 °F 34% 29.89 in 10.0 mi South 10.4 mph 16.1 mph N/A   Clear
6:56 PM 96.8 °F 99.0 °F 64.4 °F 34% 29.88 in 10.0 mi South 10.4 mph 16.1 mph N/A   Clear
7:52 PM 95.0 °F 97.0 °F 64.4 °F 36% 29.87 in 10.0 mi South 6.9 mph - N/A   Clear
9:15 PM 89.6 °F 92.2 °F 66.2 °F 46% 29.88 in 10.0 mi South 4.6 mph - N/A   Clear
9:35 PM 89.6 °F 91.1 °F 64.4 °F 43% 29.89 in 10.0 mi South 4.6 mph - N/A   Clear
9:55 PM 87.8 °F 89.4 °F 64.4 °F 46% 29.90 in 10.0 mi SSE 3.5 mph - N/A   Clear
10:15 PM 87.8 °F 89.4 °F 64.4 °F 46% 29.90 in 10.0 mi South 4.6 mph - N/A   Clear
10:35 PM 86.0 °F 87.3 °F 64.4 °F 48% 29.91 in 10.0 mi SE 3.5 mph - N/A   Clear
10:55 PM 86.0 °F 87.3 °F 64.4 °F 48% 29.92 in 10.0 mi Calm Calm - N/A   Clear
11:15 PM 86.0 °F 87.3 °F 64.4 °F 48% 29.93 in 10.0 mi SSE 3.5 mph - N/A   Clear
11:35 PM 86.0 °F 87.3 °F 64.4 °F 48% 29.93 in 10.0 mi South 5.8 mph - N/A   Clear
11:55 PM 86.0 °F 87.3 °F 64.4 °F 48% 29.93 in 10.0 mi South 5.8 mph - N/A   Clear